,,Stat5,,Stat1,,Stat2,,Stat3,,Stat4,,Wind1,,Wind1,
time,status,PA1M_AVG,status,PR1M_SUM,status,RH1M_AVG,status,SR1M_AVG,status,TA1M_AVG,status,W1dAve1m,status,W1sAve1m,
2001-07-06, 00:00:01,VALID,917.115,VALID,0,VALID,99.0555,VALID,-0.0169808,VALID,18.4664,VALID,122,VALID,0.977796,
2001-07-06, 00:01:01,VALID,917.112,VALID,0,VALID,99.0694,VALID,-0.0169808,VALID,18.4664,VALID,115,VALID,0.900905,
2001-07-06, 00:02:01,VALID,917.098,VALID,0,VALID,99.1203,VALID,-0.0169808,VALID,18.4761,VALID,116,VALID,0.849918,
2001-07-06, 00:03:01,VALID,917.091,VALID,0,VALID,99.1572,VALID,0.0169808,VALID,18.5084,VALID,117,VALID,1.03273,
2001-07-06, 00:04:01,VALID,917.075,VALID,0,VALID,99.1521,VALID,0.0169808,VALID,18.5278,VALID,115,VALID,0.929265,
2001-07-06, 00:05:01,VALID,917.08,VALID,0,VALID,99.1394,VALID,0,VALID,18.5308,VALID,112,VALID,0.757353,
2001-07-06, 00:06:00,VALID,917.072,VALID,0,VALID,99.1457,VALID,-0.0169808,VALID,18.5241,VALID,111,VALID,0.786184,
2001-07-06, 00:07:00,VALID,917.049,VALID,0,VALID,99.1724,VALID,-0.0169808,VALID,18.5407,VALID,104,VALID,0.710491,
2001-07-06, 00:08:00,VALID,917.032,VALID,0,VALID,99.1534,VALID,-0.0339617,VALID,18.537,VALID,98,VALID,0.724175,
2001-07-06, 00:09:00,VALID,917.03,VALID,0,VALID,99.1979,VALID,0.0169808,VALID,18.5728,VALID,97,VALID,0.806799,
2001-07-06, 00:10:00,VALID,917.011,VALID,0,VALID,99.1559,VALID,-0.0169808,VALID,18.5663,VALID,101,VALID,0.641827,
2001-07-06, 00:11:00,VALID,917.011,VALID,0,VALID,99.1368,VALID,-0.0169808,VALID,18.54,VALID,103,VALID,0.656661,
2001-07-06, 00:12:00,VALID,916.997,VALID,0,VALID,99.1648,VALID,0,VALID,18.5338,VALID,103,VALID,0.714433,
2001-07-06, 00:13:00,VALID,916.976,VALID,0,VALID,99.1966,VALID,-0.0169808,VALID,18.5435,VALID,103,VALID,0.720753,
2001-07-06, 00:14:00,VALID,916.975,VALID,0,VALID,99.1902,VALID,0,VALID,18.5564,VALID,99,VALID,0.769141,
2001-07-06, 00:15:00,VALID,916.961,VALID,0,VALID,99.2195,VALID,0,VALID,18.579,VALID,95,VALID,0.734169,
2001-07-06, 00:16:00,VALID,916.94,VALID,0,VALID,99.1648,VALID,-0.0169808,VALID,18.5665,VALID,98,VALID,0.545436,
2001-07-06, 00:17:00,VALID,916.935,VALID,0,VALID,99.1406,VALID,0,VALID,18.5308,VALID,107,VALID,0.433799,
2001-07-06, 00:18:00,VALID,916.934,VALID,0,VALID,99.1445,VALID,0,VALID,18.5114,VALID,127,VALID,0.644942,
2001-07-06, 00:19:00,VALID,916.945,VALID,0,VALID,99.1991,VALID,-0.0169808,VALID,18.5209,VALID,117,VALID,0.638363,
2001-07-06, 00:20:00,VALID,916.96,VALID,0,VALID,99.1292,VALID,0,VALID,18.5276,VALID,117,VALID,0.34375,
2001-07-06, 00:21:00,VALID,916.973,VALID,0,VALID,99.1012,VALID,0,VALID,18.4657,VALID,139,VALID,0.410256,
2001-07-06, 00:22:00,VALID,916.97,VALID,0,VALID,99.0949,VALID,0,VALID,18.4334,VALID,155,VALID,0.505078,
2001-07-06, 00:23:00,VALID,916.967,VALID,0,VALID,99.0923,VALID,0.0169808,VALID,18.4044,VALID,150,VALID,0.631168,
2001-07-06, 00:24:00,VALID,916.973,VALID,0,VALID,99.0872,VALID,0,VALID,18.3855,VALID,148,VALID,0.573396,
2001-07-06, 00:25:00,VALID,916.957,VALID,0,VALID,99.0669,VALID,0,VALID,18.3599,VALID,149,VALID,0.542146,
2001-07-06, 00:26:00,VALID,916.96,VALID,0,VALID,99.1292,VALID,0,VALID,18.3663,VALID,155,VALID,0.641242,
2001-07-06, 00:27:00,VALID,916.958,VALID,0,VALID,99.175,VALID,0,VALID,18.382,VALID,157,VALID,0.501645,
2001-07-06, 00:28:00,VALID,916.951,VALID,0,VALID,99.1864,VALID,0,VALID,18.4081,VALID,151,VALID,0.485403,
2001-07-06, 00:29:00,VALID,916.923,VALID,0,VALID,99.1864,VALID,0,VALID,18.4208,VALID,140,VALID,0.573918,
2001-07-06, 00:30:00,VALID,916.913,VALID,0,VALID,99.2182,VALID,0,VALID,18.4431,VALID,135,VALID,0.700391,
2001-07-06, 00:31:00,VALID,916.911,VALID,0,VALID,99.2246,VALID,0,VALID,18.4761,VALID,138,VALID,0.719572,
2001-07-06, 00:32:00,VALID,916.911,VALID,0,VALID,99.175,VALID,-0.0169808,VALID,18.4858,VALID,137,VALID,0.33162,
2001-07-06, 00:33:00,VALID,916.922,VALID,0,VALID,99.119,VALID,0,VALID,18.4471,VALID,136,VALID,0.338405,
2001-07-06, 00:34:00,VALID,916.924,VALID,0,VALID,99.0809,VALID,-0.0169808,VALID,18.4182,VALID,133,VALID,0.272204,
2001-07-06, 00:35:00,VALID,916.925,VALID,0,VALID,99.0059,VALID,0,VALID,18.3629,VALID,132,VALID,0.184005,
2001-07-06, 00:36:00,VALID,916.907,VALID,0,VALID,98.9537,VALID,-0.0339617,VALID,18.2985,VALID,132,VALID,0.10403,
2001-07-06, 00:37:00,VALID,916.914,VALID,0,VALID,98.9207,VALID,-0.0169808,VALID,18.2399,VALID,132,VALID,0,
2001-07-06, 00:38:00,VALID,916.895,VALID,0,VALID,98.8622,VALID,0,VALID,18.1659,VALID,132,VALID,0,
2001-07-06, 00:39:00,VALID,916.879,VALID,0,VALID,98.777,VALID,0,VALID,18.0951,VALID,109,VALID,0,
2001-07-06, 00:40:00,VALID,916.86,VALID,0,VALID,98.8177,VALID,0,VALID,18.0372,VALID,97,VALID,0.496094,
2001-07-06, 00:41:00,VALID,916.836,VALID,0,VALID,99.0516,VALID,0,VALID,18.0787,VALID,108,VALID,0.690789,
2001-07-06, 00:42:00,VALID,916.824,VALID,0,VALID,99.0682,VALID,-0.0509425,VALID,18.1043,VALID,111,VALID,0.655633,
2001-07-06, 00:43:00,VALID,916.826,VALID,0,VALID,99.0694,VALID,-0.0509425,VALID,18.1175,VALID,132,VALID,0.386308,
2001-07-06, 00:44:00,VALID,916.829,VALID,0,VALID,99.0936,VALID,-0.0509425,VALID,18.1375,VALID,138,VALID,0.307566,
2001-07-06, 00:45:00,VALID,916.839,VALID,0,VALID,99.1457,VALID,-0.0339617,VALID,18.1664,VALID,132,VALID,0.440304,
2001-07-06, 00:46:00,VALID,916.85,VALID,0,VALID,99.1368,VALID,0,VALID,18.2056,VALID,129,VALID,0.101563,
2001-07-06, 00:47:00,VALID,916.851,VALID,0,VALID,99.0911,VALID,-0.0339617,VALID,18.1857,VALID,129,VALID,0,
2001-07-06, 00:48:00,VALID,916.846,VALID,0,VALID,99.0504,VALID,-0.0169808,VALID,18.1668,VALID,129,VALID,0,
2001-07-06, 00:49:00,VALID,916.835,VALID,0,VALID,99.0427,VALID,-0.0169808,VALID,18.1468,VALID,129,VALID,0,
2001-07-06, 00:50:00,VALID,916.816,VALID,0,VALID,98.9359,VALID,-0.0339617,VALID,18.0919,VALID,129,VALID,0,
2001-07-06, 00:51:00,VALID,916.79,VALID,0,VALID,98.7744,VALID,-0.0169808,VALID,17.9791,VALID,108,VALID,0,
2001-07-06, 00:52:00,VALID,916.76,VALID,0,VALID,98.5989,VALID,-0.0509425,VALID,17.8538,VALID,81,VALID,0,
2001-07-06, 00:53:00,VALID,916.739,VALID,0,VALID,98.4731,VALID,-0.0509425,VALID,17.7212,VALID,81,VALID,0,
2001-07-06, 00:54:00,VALID,916.726,VALID,0,VALID,98.4527,VALID,-0.0509425,VALID,17.6205,VALID,65,VALID,0.155469,
2001-07-06, 00:55:00,VALID,916.721,VALID,0,VALID,98.4781,VALID,-0.0849042,VALID,17.5925,VALID,44,VALID,0.401933,
2001-07-06, 00:56:00,VALID,916.714,VALID,0,VALID,98.5354,VALID,-0.0169808,VALID,17.566,VALID,44,VALID,0.139186,
2001-07-06, 00:57:00,VALID,916.706,VALID,0,VALID,98.5519,VALID,0.0509425,VALID,17.5456,VALID,44,VALID,0,
2001-07-06, 00:58:00,VALID,916.696,VALID,0,VALID,98.6256,VALID,0.0169808,VALID,17.5454,VALID,44,VALID,0,
2001-07-06, 00:59:00,VALID,916.683,VALID,0,VALID,98.7185,VALID,0.0509425,VALID,17.5878,VALID,44,VALID,0,
2001-07-06, 01:00:00,VALID,916.679,VALID,0,VALID,98.7617,VALID,0.0679233,VALID,17.6035,VALID,44,VALID,0,
2001-07-06, 01:01:00,VALID,916.681,VALID,0,VALID,98.8889,VALID,0.0679233,VALID,17.6452,VALID,45,VALID,0,
2001-07-06, 01:02:00,VALID,916.676,VALID,0,VALID,98.9779,VALID,0.0339617,VALID,17.7102,VALID,64,VALID,0,
2001-07-06, 01:03:00,VALID,916.68,VALID,0,VALID,98.9296,VALID,0.0679233,VALID,17.7132,VALID,77,VALID,0,
2001-07-06, 01:04:00,VALID,916.675,VALID,0,VALID,98.9308,VALID,0.0679233,VALID,17.7162,VALID,77,VALID,0,
2001-07-06, 01:05:00,VALID,916.654,VALID,0,VALID,98.7554,VALID,0.0679233,VALID,17.6678,VALID,77,VALID,0,
2001-07-06, 01:06:00,VALID,916.652,VALID,0,VALID,98.8355,VALID,0.0509425,VALID,17.6454,VALID,97,VALID,0.301398,
2001-07-06, 01:07:00,VALID,916.648,VALID,0,VALID,98.9944,VALID,0.0509425,VALID,17.7134,VALID,110,VALID,0.641859,
2001-07-06, 01:08:00,VALID,916.633,VALID,0,VALID,99.0898,VALID,0.0849042,VALID,17.8137,VALID,125,VALID,0.612664,
2001-07-06, 01:09:00,VALID,916.638,VALID,0,VALID,99.0682,VALID,0.0169808,VALID,17.8458,VALID,136,VALID,0.390024,
2001-07-06, 01:10:00,VALID,916.64,VALID,0,VALID,99.1305,VALID,0,VALID,17.8878,VALID,133,VALID,0.591406,
2001-07-06, 01:11:00,VALID,916.635,VALID,0,VALID,99.1228,VALID,0.0339617,VALID,17.936,VALID,134,VALID,0.551604,
2001-07-06, 01:12:00,VALID,916.629,VALID,0,VALID,99.1419,VALID,0,VALID,17.9699,VALID,127,VALID,0.427426,
2001-07-06, 01:13:00,VALID,916.629,VALID,0,VALID,99.0453,VALID,-0.0169808,VALID,17.9638,VALID,102,VALID,0.487459,
2001-07-06, 01:14:00,VALID,916.631,VALID,0,VALID,99.0313,VALID,-0.0339617,VALID,17.9246,VALID,101,VALID,0.546053,
2001-07-06, 01:15:00,VALID,916.627,VALID,0,VALID,99.0427,VALID,-0.0509425,VALID,17.9412,VALID,100,VALID,0.41653,
2001-07-06, 01:16:00,VALID,916.626,VALID,0,VALID,99.0466,VALID,-0.0679233,VALID,17.9286,VALID,100,VALID,0.482113,
2001-07-06, 01:17:00,VALID,916.627,VALID,0,VALID,98.9436,VALID,-0.0849042,VALID,17.8737,VALID,93,VALID,0.4375,
2001-07-06, 01:18:00,VALID,916.635,VALID,0,VALID,98.9575,VALID,-0.0509425,VALID,17.8276,VALID,90,VALID,0.379492,
2001-07-06, 01:19:00,VALID,916.607,VALID,0,VALID,98.9779,VALID,-0.101885,VALID,17.825,VALID,86,VALID,0.443051,
2001-07-06, 01:20:00,VALID,916.583,VALID,0,VALID,99.0771,VALID,-0.0849042,VALID,17.8407,VALID,91,VALID,0.621094,
2001-07-06, 01:21:00,VALID,916.571,VALID,0,VALID,99.1864,VALID,-0.0509425,VALID,17.935,VALID,91,VALID,0.700247,
2001-07-06, 01:22:00,VALID,916.559,VALID,0,VALID,99.2335,VALID,-0.0849042,VALID,18.0157,VALID,91,VALID,0.71875,
2001-07-06, 01:23:00,VALID,916.566,VALID,0,VALID,99.2271,VALID,-0.0679233,VALID,18.0545,VALID,90,VALID,0.674959,
2001-07-06, 01:24:00,VALID,916.557,VALID,0,VALID,99.2462,VALID,-0.0509425,VALID,18.1059,VALID,94,VALID,0.597039,
2001-07-06, 01:25:00,VALID,916.55,VALID,0,VALID,99.236,VALID,-0.0679233,VALID,18.1481,VALID,104,VALID,0.598157,
2001-07-06, 01:26:00,VALID,916.543,VALID,0,VALID,99.1979,VALID,-0.0849042,VALID,18.1675,VALID,107,VALID,0.72168,
2001-07-06, 01:27:00,VALID,916.511,VALID,0,VALID,99.1674,VALID,-0.0169808,VALID,18.1539,VALID,109,VALID,0.695107,
2001-07-06, 01:28:00,VALID,916.469,VALID,0,VALID,99.1496,VALID,0,VALID,18.1306,VALID,108,VALID,0.805099,
2001-07-06, 01:29:00,VALID,916.444,VALID,0,VALID,99.1788,VALID,0.0339617,VALID,18.1465,VALID,98,VALID,0.602385,
2001-07-06, 01:30:00,VALID,916.422,VALID,0,VALID,99.133,VALID,0.0169808,VALID,18.1304,VALID,91,VALID,0.439967,
2001-07-06, 01:31:00,VALID,916.402,VALID,0,VALID,99.0682,VALID,0,VALID,18.0921,VALID,91,VALID,0.41653,
2001-07-06, 01:32:00,VALID,916.38,VALID,0,VALID,99.016,VALID,0,VALID,18.0464,VALID,91,VALID,0.342516,
2001-07-06, 01:33:00,VALID,916.375,VALID,0,VALID,98.9346,VALID,0,VALID,17.9789,VALID,91,VALID,0.274439,
2001-07-06, 01:34:00,VALID,916.364,VALID,0,VALID,99.0631,VALID,-0.0169808,VALID,17.9855,VALID,103,VALID,0.417188,
2001-07-06, 01:35:00,VALID,916.346,VALID,0,VALID,99.0631,VALID,0,VALID,18.0181,VALID,105,VALID,0.204359,
2001-07-06, 01:36:00,VALID,916.336,VALID,0,VALID,98.997,VALID,0,VALID,18.0021,VALID,117,VALID,0.43935,
2001-07-06, 01:37:00,VALID,916.324,VALID,0,VALID,98.9995,VALID,0.0169808,VALID,17.9756,VALID,130,VALID,0.530222,
2001-07-06, 01:38:00,VALID,916.319,VALID,0,VALID,99.0516,VALID,0,VALID,17.9885,VALID,129,VALID,0.315173,
2001-07-06, 01:39:00,VALID,916.336,VALID,0,VALID,98.894,VALID,0,VALID,17.9503,VALID,115,VALID,0.299959,
2001-07-06, 01:40:00,VALID,916.329,VALID,0,VALID,98.721,VALID,0,VALID,17.8273,VALID,90,VALID,0.330387,
2001-07-06, 01:41:00,VALID,916.312,VALID,0,VALID,98.4603,VALID,-0.0169808,VALID,17.7014,VALID,78,VALID,0.521835,
2001-07-06, 01:42:00,VALID,916.28,VALID,0,VALID,98.5697,VALID,0,VALID,17.6205,VALID,78,VALID,0.603711,
2001-07-06, 01:43:00,VALID,916.261,VALID,0,VALID,98.8685,VALID,0,VALID,17.6721,VALID,87,VALID,0.629112,
2001-07-06, 01:44:00,VALID,916.217,VALID,0,VALID,98.9029,VALID,-0.0169808,VALID,17.7206,VALID,105,VALID,0.671875,
2001-07-06, 01:45:00,VALID,916.195,VALID,0,VALID,99.0148,VALID,0,VALID,17.7815,VALID,117,VALID,0.672081,
2001-07-06, 01:46:00,VALID,916.184,VALID,0,VALID,99.0046,VALID,0,VALID,17.8209,VALID,117,VALID,0.546875,
2001-07-06, 01:47:00,VALID,916.172,VALID,0,VALID,99.0173,VALID,0,VALID,17.8439,VALID,114,VALID,0.703331,
2001-07-06, 01:48:00,VALID,916.177,VALID,0,VALID,98.9792,VALID,0,VALID,17.8467,VALID,115,VALID,0.492599,
2001-07-06, 01:49:00,VALID,916.189,VALID,0,VALID,98.9143,VALID,0,VALID,17.8338,VALID,106,VALID,0.52524,
2001-07-06, 01:50:00,VALID,916.191,VALID,0,VALID,98.8011,VALID,0,VALID,17.7948,VALID,100,VALID,0.480859,
2001-07-06, 01:51:00,VALID,916.166,VALID,0,VALID,98.7147,VALID,0,VALID,17.7397,VALID,100,VALID,0.443873,
2001-07-06, 01:52:00,VALID,916.157,VALID,0,VALID,98.7871,VALID,0,VALID,17.7337,VALID,99,VALID,0.630757,
2001-07-06, 01:53:00,VALID,916.119,VALID,0,VALID,98.8952,VALID,0,VALID,17.7561,VALID,99,VALID,0.715255,
2001-07-06, 01:54:00,VALID,916.107,VALID,0,VALID,98.9919,VALID,0,VALID,17.8142,VALID,100,VALID,0.651727,
2001-07-06, 01:55:00,VALID,916.093,VALID,0,VALID,98.9537,VALID,0,VALID,17.8306,VALID,98,VALID,0.479235,
2001-07-06, 01:56:00,VALID,916.077,VALID,0,VALID,98.8316,VALID,0.0169808,VALID,17.7948,VALID,98,VALID,0.314145,
2001-07-06, 01:57:00,VALID,916.066,VALID,0,VALID,98.8113,VALID,0,VALID,17.763,VALID,98,VALID,0.305889,
2001-07-06, 01:58:00,VALID,916.038,VALID,0,VALID,98.81,VALID,0,VALID,17.7369,VALID,98,VALID,0.227148,
2001-07-06, 01:59:00,VALID,916.015,VALID,0,VALID,98.8011,VALID,0,VALID,17.7342,VALID,98,VALID,0.239515,
2001-07-06, 02:00:00,VALID,916.005,VALID,0,VALID,98.8062,VALID,-0.0169808,VALID,17.7279,VALID,98,VALID,0,
2001-07-06, 02:01:00,VALID,915.998,VALID,0,VALID,98.8393,VALID,0.0169808,VALID,17.7141,VALID,98,VALID,0,
2001-07-06, 02:02:00,VALID,915.984,VALID,0,VALID,98.721,VALID,-0.0169808,VALID,17.7113,VALID,98,VALID,0,
2001-07-06, 02:03:00,VALID,915.97,VALID,0,VALID,98.6167,VALID,0.0169808,VALID,17.6564,VALID,105,VALID,0,
2001-07-06, 02:04:00,VALID,915.965,VALID,0,VALID,98.6841,VALID,0,VALID,17.6304,VALID,117,VALID,0,
2001-07-06, 02:05:00,VALID,915.961,VALID,0,VALID,98.693,VALID,0,VALID,17.6207,VALID,116,VALID,0,
2001-07-06, 02:06:00,VALID,915.954,VALID,0,VALID,98.7732,VALID,-0.0169808,VALID,17.6366,VALID,99,VALID,0,
2001-07-06, 02:07:00,VALID,915.945,VALID,0,VALID,98.6994,VALID,0.0169808,VALID,17.6304,VALID,99,VALID,0,
2001-07-06, 02:08:00,VALID,915.945,VALID,0,VALID,98.735,VALID,0,VALID,17.6046,VALID,98,VALID,0,
2001-07-06, 02:09:00,VALID,915.935,VALID,0,VALID,98.7693,VALID,0,VALID,17.6112,VALID,98,VALID,0,
2001-07-06, 02:10:00,VALID,915.914,VALID,0,VALID,98.6384,VALID,0,VALID,17.5691,VALID,95,VALID,0,
2001-07-06, 02:11:00,VALID,915.889,VALID,0,VALID,98.309,VALID,0,VALID,17.4694,VALID,79,VALID,0,
2001-07-06, 02:12:00,VALID,915.866,VALID,0,VALID,98.0534,VALID,0,VALID,17.3401,VALID,74,VALID,0,
2001-07-06, 02:13:00,VALID,915.844,VALID,0,VALID,98.0382,VALID,0,VALID,17.2951,VALID,74,VALID,0,
2001-07-06, 02:14:00,VALID,915.829,VALID,0,VALID,98.0585,VALID,0,VALID,17.2624,VALID,74,VALID,0,
2001-07-06, 02:15:00,VALID,915.819,VALID,0,VALID,98.2073,VALID,0,VALID,17.2757,VALID,74,VALID,0,
2001-07-06, 02:16:00,VALID,915.811,VALID,0,VALID,98.501,VALID,0,VALID,17.3209,VALID,74,VALID,0,
2001-07-06, 02:17:00,VALID,915.81,VALID,0,VALID,98.529,VALID,0,VALID,17.3659,VALID,75,VALID,0,
2001-07-06, 02:18:00,VALID,915.807,VALID,0,VALID,98.4998,VALID,0,VALID,17.3721,VALID,116,VALID,0,
2001-07-06, 02:19:00,VALID,915.79,VALID,0,VALID,98.543,VALID,0,VALID,17.3823,VALID,131,VALID,0,
2001-07-06, 02:20:00,VALID,915.782,VALID,0,VALID,98.6206,VALID,-0.0169808,VALID,17.4018,VALID,114,VALID,0.237459,
2001-07-06, 02:21:00,VALID,915.762,VALID,0,VALID,98.7533,VALID,-0.020377,VALID,17.4408,VALID,114,VALID,0.768102,
2001-07-06, 02:22:00,VALID,915.762,VALID,0,VALID,98.7859,VALID,0,VALID,17.4498,VALID,112,VALID,0.750977,
2001-07-06, 02:23:00,VALID,915.736,VALID,0,VALID,98.8749,VALID,-0.0169808,VALID,17.5047,VALID,112,VALID,0.790502,
2001-07-06, 02:24:00,VALID,915.712,VALID,0,VALID,98.8189,VALID,-0.0169808,VALID,17.5118,VALID,113,VALID,0.722039,
2001-07-06, 02:25:00,VALID,915.69,VALID,0,VALID,98.8889,VALID,0,VALID,17.5181,VALID,110,VALID,0.776521,
2001-07-06, 02:26:00,VALID,915.656,VALID,0,VALID,99.0198,VALID,0,VALID,17.5658,VALID,108,VALID,0.876028,
2001-07-06, 02:27:00,VALID,915.617,VALID,0,VALID,99.0644,VALID,0,VALID,17.6341,VALID,97,VALID,0.88384,
2001-07-06, 02:28:00,VALID,915.591,VALID,0,VALID,98.8189,VALID,0,VALID,17.5787,VALID,79,VALID,0.606908,
2001-07-06, 02:29:00,VALID,915.558,VALID,0,VALID,98.7846,VALID,0,VALID,17.4817,VALID,71,VALID,0.783053,
2001-07-06, 02:30:00,VALID,915.565,VALID,0,VALID,99.2131,VALID,0,VALID,17.6528,VALID,82,VALID,0.644531,
2001-07-06, 02:31:00,VALID,915.547,VALID,0,VALID,99.1712,VALID,0,VALID,17.7367,VALID,85,VALID,0.567845,
2001-07-06, 02:32:00,VALID,915.544,VALID,0,VALID,99.1699,VALID,0,VALID,17.7761,VALID,87,VALID,0.896587,
2001-07-06, 02:33:00,VALID,915.54,VALID,0,VALID,99.161,VALID,0.0169808,VALID,17.8112,VALID,86,VALID,0.72574,
2001-07-06, 02:34:00,VALID,915.534,VALID,0,VALID,99.1305,VALID,0,VALID,17.8209,VALID,87,VALID,0.590666,
2001-07-06, 02:35:00,VALID,915.527,VALID,0,VALID,98.9639,VALID,-0.0169808,VALID,17.7568,VALID,86,VALID,0.338405,
2001-07-06, 02:36:00,VALID,915.514,VALID,0,VALID,98.7782,VALID,0,VALID,17.6537,VALID,82,VALID,0.325041,
2001-07-06, 02:37:00,VALID,915.504,VALID,0,VALID,98.6676,VALID,0,VALID,17.5497,VALID,82,VALID,0.409054,
2001-07-06, 02:38:00,VALID,915.491,VALID,0,VALID,98.791,VALID,0,VALID,17.5404,VALID,82,VALID,0.445117,
2001-07-06, 02:39:00,VALID,915.467,VALID,0,VALID,98.894,VALID,-0.0169808,VALID,17.5727,VALID,94,VALID,0.785567,
2001-07-06, 02:40:00,VALID,915.437,VALID,0,VALID,98.9448,VALID,0,VALID,17.585,VALID,97,VALID,0.786801,
2001-07-06, 02:41:00,VALID,915.43,VALID,0,VALID,98.9588,VALID,-0.0169808,VALID,17.6082,VALID,109,VALID,0.809827,
2001-07-06, 02:42:00,VALID,915.397,VALID,0,VALID,98.9601,VALID,0,VALID,17.5981,VALID,105,VALID,0.755962,
2001-07-06, 02:43:00,VALID,915.366,VALID,0,VALID,98.9779,VALID,0,VALID,17.6043,VALID,103,VALID,0.612253,
2001-07-06, 02:44:00,VALID,915.367,VALID,0,VALID,98.7808,VALID,0,VALID,17.5435,VALID,91,VALID,0.403988,
2001-07-06, 02:45:00,VALID,915.363,VALID,0,VALID,98.7197,VALID,0,VALID,17.466,VALID,90,VALID,0.461739,
2001-07-06, 02:46:00,VALID,915.367,VALID,0,VALID,98.8444,VALID,0,VALID,17.4332,VALID,102,VALID,0.586719,
2001-07-06, 02:47:00,VALID,915.353,VALID,0,VALID,98.9944,VALID,0.0169808,VALID,17.4851,VALID,121,VALID,0.800576,
2001-07-06, 02:48:00,VALID,915.358,VALID,0,VALID,99.0466,VALID,0.0169808,VALID,17.5236,VALID,123,VALID,0.597039,
2001-07-06, 02:49:00,VALID,915.355,VALID,0,VALID,98.9372,VALID,0.0169808,VALID,17.4944,VALID,127,VALID,0.576891,
2001-07-06, 02:50:00,VALID,915.357,VALID,0,VALID,98.894,VALID,0.0169808,VALID,17.472,VALID,132,VALID,0.67023,
2001-07-06, 02:51:00,VALID,915.36,VALID,0,VALID,98.8851,VALID,0,VALID,17.4595,VALID,135,VALID,0.48787,
2001-07-06, 02:52:00,VALID,915.35,VALID,0,VALID,98.7566,VALID,0,VALID,17.4171,VALID,128,VALID,0.389391,
2001-07-06, 02:53:00,VALID,915.344,VALID,0,VALID,98.7719,VALID,0,VALID,17.3719,VALID,134,VALID,0.507612,
2001-07-06, 02:54:00,VALID,915.368,VALID,0,VALID,98.7744,VALID,0,VALID,17.3429,VALID,147,VALID,0.450977,
2001-07-06, 02:55:00,VALID,915.387,VALID,0,VALID,98.7859,VALID,0.0169808,VALID,17.3267,VALID,152,VALID,0.41139,
2001-07-06, 02:56:00,VALID,915.407,VALID,0,VALID,98.7274,VALID,0,VALID,17.3071,VALID,161,VALID,0.439762,
2001-07-06, 02:57:00,VALID,915.413,VALID,0,VALID,98.7147,VALID,0.0169808,VALID,17.2785,VALID,161,VALID,0.379317,
2001-07-06, 02:58:00,VALID,915.427,VALID,0,VALID,98.707,VALID,0,VALID,17.2654,VALID,153,VALID,0.426604,
2001-07-06, 02:59:00,VALID,915.431,VALID,0,VALID,98.6498,VALID,0,VALID,17.2495,VALID,133,VALID,0.329359,
2001-07-06, 03:00:00,VALID,915.418,VALID,0,VALID,98.5964,VALID,0,VALID,17.2142,VALID,120,VALID,0.342311,
2001-07-06, 03:01:00,VALID,915.404,VALID,0,VALID,98.7083,VALID,0,VALID,17.201,VALID,102,VALID,0.556891,
2001-07-06, 03:02:00,VALID,915.382,VALID,0,VALID,98.7414,VALID,0.0169808,VALID,17.2273,VALID,86,VALID,0.558789,
2001-07-06, 03:03:00,VALID,915.363,VALID,0,VALID,98.7744,VALID,0,VALID,17.2043,VALID,92,VALID,0.766242,
2001-07-06, 03:04:00,VALID,915.323,VALID,0,VALID,99.1356,VALID,0.0169808,VALID,17.3399,VALID,102,VALID,0.82278,
2001-07-06, 03:05:00,VALID,915.284,VALID,0,VALID,99.1368,VALID,0.0169808,VALID,17.43,VALID,104,VALID,0.848684,
2001-07-06, 03:06:00,VALID,915.264,VALID,0,VALID,99.016,VALID,0.0169808,VALID,17.4434,VALID,116,VALID,0.94963,
2001-07-06, 03:07:00,VALID,915.27,VALID,0,VALID,98.9486,VALID,0,VALID,17.4374,VALID,120,VALID,0.982319,
2001-07-06, 03:08:00,VALID,915.28,VALID,0,VALID,98.8291,VALID,0.0169808,VALID,17.4109,VALID,118,VALID,0.744449,
2001-07-06, 03:09:00,VALID,915.29,VALID,0,VALID,98.5939,VALID,0,VALID,17.3435,VALID,120,VALID,0.676683,
2001-07-06, 03:10:00,VALID,915.292,VALID,0,VALID,98.6422,VALID,0,VALID,17.3015,VALID,107,VALID,0.808203,
2001-07-06, 03:11:00,VALID,915.283,VALID,0,VALID,98.894,VALID,0.0169808,VALID,17.3338,VALID,104,VALID,0.997122,
2001-07-06, 03:12:00,VALID,915.269,VALID,0,VALID,98.9881,VALID,0,VALID,17.4081,VALID,104,VALID,0.93051,
2001-07-06, 03:13:00,VALID,915.25,VALID,0,VALID,98.852,VALID,0,VALID,17.4081,VALID,88,VALID,0.512747,
2001-07-06, 03:14:00,VALID,915.247,VALID,0,VALID,98.4896,VALID,0.0169808,VALID,17.2985,VALID,79,VALID,0.312706,
2001-07-06, 03:15:00,VALID,915.243,VALID,0,VALID,98.5176,VALID,0,VALID,17.2335,VALID,79,VALID,0.0197368,
2001-07-06, 03:16:00,VALID,915.244,VALID,0,VALID,98.5926,VALID,0,VALID,17.2301,VALID,79,VALID,0,
2001-07-06, 03:17:00,VALID,915.256,VALID,0,VALID,98.6307,VALID,-0.0169808,VALID,17.2465,VALID,79,VALID,0,
2001-07-06, 03:18:00,VALID,915.253,VALID,0,VALID,98.6752,VALID,0,VALID,17.2693,VALID,85,VALID,0,
2001-07-06, 03:19:00,VALID,915.235,VALID,0,VALID,98.6104,VALID,0.0169808,VALID,17.2695,VALID,95,VALID,0,
2001-07-06, 03:20:00,VALID,915.222,VALID,0,VALID,98.7147,VALID,-0.0169808,VALID,17.2695,VALID,103,VALID,0,
2001-07-06, 03:21:00,VALID,915.209,VALID,0,VALID,98.8139,VALID,-0.0169808,VALID,17.2953,VALID,103,VALID,0,
2001-07-06, 03:22:00,VALID,915.218,VALID,0,VALID,98.7414,VALID,0,VALID,17.2852,VALID,103,VALID,0,
2001-07-06, 03:23:00,VALID,915.225,VALID,0,VALID,98.7007,VALID,-0.0169808,VALID,17.2725,VALID,103,VALID,0,
2001-07-06, 03:24:00,VALID,915.249,VALID,0,VALID,98.6841,VALID,-0.0169808,VALID,17.2697,VALID,103,VALID,0,
2001-07-06, 03:25:00,VALID,915.259,VALID,0,VALID,98.6727,VALID,-0.0169808,VALID,17.2503,VALID,103,VALID,0,
2001-07-06, 03:26:00,VALID,915.286,VALID,0,VALID,98.8304,VALID,0,VALID,17.2762,VALID,103,VALID,0,
2001-07-06, 03:27:00,VALID,915.296,VALID,0,VALID,98.9308,VALID,0,VALID,17.3308,VALID,103,VALID,0,
2001-07-06, 03:28:00,VALID,915.317,VALID,0,VALID,98.9944,VALID,0.0679233,VALID,17.3818,VALID,103,VALID,0,
2001-07-06, 03:29:00,VALID,915.336,VALID,0,VALID,98.9436,VALID,0.0339617,VALID,17.4247,VALID,103,VALID,0,
2001-07-06, 03:30:00,VALID,915.357,VALID,0,VALID,98.5405,VALID,0.0679233,VALID,17.2755,VALID,103,VALID,0,
2001-07-06, 03:31:00,VALID,915.359,VALID,0,VALID,98.4502,VALID,0.0679233,VALID,17.1858,VALID,103,VALID,0,
2001-07-06, 03:32:00,VALID,915.381,VALID,0,VALID,98.5277,VALID,0.0849042,VALID,17.1658,VALID,103,VALID,0,
2001-07-06, 03:33:00,VALID,915.408,VALID,0,VALID,98.5036,VALID,0.0169808,VALID,17.1333,VALID,103,VALID,0,
2001-07-06, 03:34:00,VALID,915.426,VALID,0,VALID,98.5862,VALID,0.0679233,VALID,17.1533,VALID,103,VALID,0,
2001-07-06, 03:35:00,VALID,915.432,VALID,0,VALID,98.515,VALID,0.0509425,VALID,17.1305,VALID,103,VALID,0,
2001-07-06, 03:36:00,VALID,915.439,VALID,0,VALID,98.6638,VALID,0.0509425,VALID,17.1593,VALID,103,VALID,0,
2001-07-06, 03:37:00,VALID,915.449,VALID,0,VALID,98.7719,VALID,0.0679233,VALID,17.2116,VALID,102,VALID,0,
2001-07-06, 03:38:00,VALID,915.448,VALID,0,VALID,98.866,VALID,0.0339617,VALID,17.2596,VALID,30,VALID,0,
2001-07-06, 03:39:00,VALID,915.469,VALID,0,VALID,98.9041,VALID,0.0679233,VALID,17.2921,VALID,30,VALID,0,
2001-07-06, 03:40:00,VALID,915.471,VALID,0,VALID,98.9601,VALID,0.0339617,VALID,17.3534,VALID,30,VALID,0,